Weather History for Sitka, AK

Change the Weather History Date:

Monday, April 21, 2014

  Actual Average Record
Temperature  
Mean Temperature 44 °F -  
Max Temperature 46 °F 47 °F 70 °F (1956)
Min Temperature 37 °F 37 °F 29 °F (1972)
Degree Days  
Heating Degree Days 22    
Moisture  
Dew Point 36 °F    
Average Humidity 73    
Maximum Humidity 86    
Minimum Humidity 61    
Precipitation  
Precipitation 0.00 in - - ()
Sea Level Pressure  
Sea Level Pressure 29.94 in    
Wind  
Wind Speed 10 mph (SSE)    
Max Wind Speed 17 mph    
Max Gust Speed 24 mph    
Visibility 10 miles    
Events Rain    
Averages and records for this station are not official NWS values.
T = Trace of Precipitation, MM = Missing Value Source: NWS Daily Summary

Daily Weather History Graph

Daily Weather History Graph

Search for Another Location

Airport:

Trip Planner

Search our weather history database for the weather conditions in past years. The results will help you decide how hot, cold, wet, or windy it might be!

Date:

Astronomy

Apr. 21, 2014 Rise Set
Actual Time 5:37 AM AKDT 8:24 PM AKDT
Civil Twilight 4:54 AM AKDT 9:07 PM AKDT
Nautical Twilight 3:57 AM AKDT 10:05 PM AKDT
Astronomical Twilight 2:40 AM AKDT 11:24 PM AKDT
Moon 2:16 AM AKDT (4/21) 10:58 AM AKDT (4/21)
Length of Visible Light 16h 13m
Length of Day
14h 47m
Waning Gibbous, 56% of the Moon is Illuminated
Apr 21
Waning Gibbous
Apr 21
Last Quarter
Apr 28
New
May 6
First Quarter
May 14
Full

Hourly Weather History & Observations

Time (AKDT) Temp. Windchill Dew Point Humidity Pressure Visibility Wind Dir Wind Speed Gust Speed Precip Events Conditions
12:53 AM 48.0 °F - 35.1 °F 61% 29.78 in 10.0 mi ENE 13.8 mph 17.3 mph N/A   Overcast
1:53 AM 46.9 °F - 37.0 °F 68% 29.80 in 10.0 mi ESE 12.7 mph 24.2 mph 0.00 in Rain Light Rain
2:53 AM 46.0 °F 41.9 °F 37.0 °F 71% 29.81 in 10.0 mi ESE 8.1 mph - 0.00 in   Overcast
3:53 AM 45.0 °F 39.7 °F 37.9 °F 76% 29.81 in 10.0 mi ESE 10.4 mph - 0.00 in Rain Light Rain
4:53 AM 45.0 °F 38.5 °F 37.0 °F 74% 29.81 in 10.0 mi ESE 13.8 mph - 0.00 in   Partly Cloudy
5:53 AM 46.0 °F 40.6 °F 35.1 °F 66% 29.82 in 10.0 mi ESE 11.5 mph 20.7 mph N/A   Mostly Cloudy
6:53 AM 46.0 °F 40.2 °F 35.1 °F 66% 29.86 in 10.0 mi ESE 12.7 mph - N/A   Overcast
7:53 AM 45.0 °F 37.6 °F 34.0 °F 65% 29.90 in 10.0 mi SE 17.3 mph - N/A   Overcast
8:53 AM 46.0 °F 41.4 °F 34.0 °F 63% 29.94 in 10.0 mi SSE 9.2 mph - N/A   Overcast
9:53 AM 44.1 °F 37.4 °F 37.0 °F 76% 29.97 in 10.0 mi SSW 13.8 mph - N/A   Overcast
10:53 AM 45.0 °F 38.5 °F 36.0 °F 71% 30.00 in 10.0 mi SSW 13.8 mph - N/A   Overcast
11:53 AM 46.0 °F 41.9 °F 36.0 °F 68% 30.01 in 10.0 mi SSW 8.1 mph - 0.00 in   Mostly Cloudy
12:53 PM 44.1 °F 37.1 °F 37.9 °F 79% 30.03 in 10.0 mi SSW 15.0 mph - 0.00 in   Mostly Cloudy
1:53 PM 44.1 °F 39.0 °F 36.0 °F 73% 30.04 in 10.0 mi South 9.2 mph - 0.00 in Rain Light Rain
2:53 PM 45.0 °F 41.2 °F 36.0 °F 71% 30.04 in 10.0 mi SW 6.9 mph - 0.00 in   Mostly Cloudy
3:53 PM 45.0 °F 40.6 °F 35.1 °F 68% 30.04 in 10.0 mi West 8.1 mph - 0.00 in   Mostly Cloudy
4:53 PM 45.0 °F 41.2 °F 36.0 °F 71% 30.02 in 10.0 mi WNW 6.9 mph - 0.00 in   Scattered Clouds
5:53 PM 45.0 °F 41.2 °F 36.0 °F 71% 30.01 in 10.0 mi SW 6.9 mph - N/A   Scattered Clouds
6:53 PM 45.0 °F - 37.0 °F 74% 30.00 in 10.0 mi Calm Calm - N/A   Scattered Clouds
7:53 PM 45.0 °F - 37.9 °F 76% 30.00 in 10.0 mi Calm Calm - N/A   Scattered Clouds
8:53 PM 44.1 °F - 37.9 °F 79% 30.00 in 10.0 mi Calm Calm - N/A   Scattered Clouds
9:53 PM 39.9 °F 36.7 °F 36.0 °F 86% 29.99 in 10.0 mi East 4.6 mph - N/A   Clear
10:53 PM 39.0 °F - 35.1 °F 86% 29.98 in 10.0 mi Calm Calm - N/A   Clear
11:53 PM 37.9 °F 34.4 °F 34.0 °F 86% 29.96 in 10.0 mi East 4.6 mph - N/A   Clear